Location: ECC Obs
(38.4314°N, 90.9815°W)
Time: 15:02:15
(UTC-06:00)

ISS - Visible Passes

Search period start: 27 February 2020 00:00
Search period end: 08 March 2020 00:00
Orbit: 415 x 423 km, 51.6° (Epoch: 28 February)

Date Brightness Start Highest point End Pass type
(mag) Time Alt. Az. Time Alt. Az. Time Alt. Az.
27 Feb -2.1 05:11:09 22° NNW 05:11:09 22° NNW 05:13:38 10° NNE visible
28 Feb -1.0 04:25:29 15° NNE 04:25:29 15° NNE 04:26:14 10° NE visible
28 Feb -1.2 05:59:58 10° NNW 06:00:48 11° NNW 06:01:37 10° N visible
29 Feb -1.4 05:12:41 13° NNW 05:12:52 13° NNW 05:14:29 10° NNE visible
01 Mar -0.8 04:26:53 11° NNE 04:26:53 11° NNE 04:27:12 10° NNE visible
06 Mar -1.0 05:17:49 10° N 05:19:01 11° NNE 05:20:12 10° NE visible
